Regional Weather Roundup
Issued by NWS Little Rock, AR

Home | Current Version | Previous Version | Text Only | Print | Product List | Glossary On
Versions: 1 2 3 4 5 6 7 8 9 10 11 12 13 14 15 16 17 18 19 20 21 22 23 24 25 26 27 28 29 30 31 32 33 34 35 36 37 38 39 40 41 42 43 44 45 46 47 48 49 50
000
ASUS44 KLZK 290905
RWRLZK

WEATHER ROUNDUP FOR ARKANSAS
NATIONAL WEATHER SERVICE LITTLE ROCK AR
400 AM CDT FRI MAY 29 2015

NOTE: "FAIR" INDICATES FEW OR NO CLOUDS BELOW 12,000 FEET WITH NO
SIGNIFICANT WEATHER AND/OR OBSTRUCTIONS TO VISIBILITY.

ARZ001-003-010-029-291000-
NORTHWEST ARKANSAS

CITY           SKY/WX    TMP DP  RH WIND       PRES   REMARKS
FAYETTEVILLE   LGT RAIN  67  64  90 S9        29.98F
FORT SMITH     CLOUDY    68  65  90 E6        29.96F
HARRISON       MOCLDY    64  61  90 SE8       30.00F
BENTONVILLE    PTCLDY   N/A N/A N/A S6        29.97F
ROGERS         PTCLDY    65  61  87 SE8       29.99F
SILOAM SPGS    MOCLDY    66  59  77 SE9       29.98S
HIGHFILL       PTCLDY    65  62  90 S5        29.97F
$$

ARZ004-005-016-291000-
NORTH CENTRAL ARKANSAS

CITY           SKY/WX    TMP DP  RH WIND       PRES   REMARKS
BATESVILLE     CLOUDY    70  64  83 CALM      30.00S
FLIPPIN        MOCLDY    64  61  88 S3        29.99F
MTN HOME       MOCLDY    65  61  87 S6        30.00F
$$

ARZ040-041-291000-
WEST CENTRAL ARKANSAS

CITY           SKY/WX    TMP DP  RH WIND       PRES   REMARKS
MENA           CLOUDY    68  66  94 CALM      30.00S
MOUNT IDA      MOCLDY    65  64  97 CALM      29.98F
$$

ARZ009-017-025-026-028-291000-
NORTHEAST ARKANSAS

CITY           SKY/WX    TMP DP  RH WIND       PRES   REMARKS
CORNING        FAIR      68  68 100 SE3       30.02R
JONESBORO      PTCLDY    69  67  93 SE5       30.01R
NEWPORT        MOCLDY    69  69 100 S3        30.02R
WALNUT RIDGE   MOCLDY    70  64  83 CALM      30.01R
BLYTHEVILLE    CLEAR     68  67  96 S6        30.01F
$$

ARZ022-023-033-042-044-291000-
CENTRAL ARKANSAS

CITY           SKY/WX    TMP DP  RH WIND       PRES   REMARKS
LITTLE ROCK    CLOUDY    68  64  87 CALM      30.01S
N LITTLE ROCK    N/A     66  66 100 CALM      30.01S
JACKSONVILLE   MOCLDY    65  64  99 CALM      30.01R
SEARCY         MOCLDY    65  64  97 CALM      30.02S
HOT SPRINGS    CLOUDY    68  65  90 E6        30.00F
RUSSELLVILLE   MOCLDY    68  66  93 E5        29.98F
CLINTON        CLOUDY    63  63 100 CALM      30.03F FOG
$$

ARZ036-291000-
EAST ARKANSAS

CITY           SKY/WX    TMP DP  RH WIND       PRES   REMARKS
WEST MEMPHIS   CLEAR     68  68 100 S6        29.99F
$$

ARZ050-053-066-070-073-291000-
SOUTHWEST ARKANSAS

CITY           SKY/WX    TMP DP  RH WIND       PRES   REMARKS
ARKADELPHIA    FAIR      67  67 100 CALM      30.00F
CAMDEN         MOCLDY    64  63  94 CALM      29.98F FOG
TEXARKANA      MOCLDY    68  67  96 CALM      29.98S
EL DORADO      PTCLDY    67  66  97 CALM      29.98F
DE QUEEN       CLOUDY    68  66  93 E17       29.96S
$$

ARZ056-057-069-291000-
SOUTHEAST ARKANSAS

CITY           SKY/WX    TMP DP  RH WIND       PRES   REMARKS
PINE BLUFF     MOCLDY    67  66  97 CALM      29.99F
STUTTGART      MOCLDY    68  64  88 CALM      30.02R
MONTICELLO     CLEAR     70  69  97 CALM      29.99F

$$




USA.gov is the U.S. government's official web portal to all federal, state and local government web resources and services.